Welcome to the New NWS' Forecast!
Most changes are behind the scenes, but click here for differences you might notice.

Regional Weather Roundup (RWR)

Issued by Gray - Portland, ME (GYX)

                            
967 
ASUS41 KGYX 201410
RWRGYX
WEATHER ROUNDUP FOR MAINE AND NEW HAMPSHIRE
NATIONAL WEATHER SERVICE GRAY ME
1000 AM EDT FRI OCT 20 2017

MEZ002-005-006-010-012-015-018-020-021-024-026-027-029-201500-
MAINE
  
CITY           SKY/WX    TMP DP  RH WIND       PRES   REMARKS
PORTLAND       MOSUNNY   61  39  44 NW8       30.02R                  
SANFORD        SUNNY     62  39  42 W10       30.03S                  
BAR HARBOR     SUNNY     61  44  53 VRB3      29.96S                  
WISCASSET      SUNNY     63  39  41 VRB6      30.01R                  
ROCKLAND       SUNNY     61  40  45 W10       29.98R                  
FRYEBURG       SUNNY     62  39  42 VRB5      30.01S                  
LEWISTONAUBURN SUNNY     60  38  43 N6        30.01S                  
AUGUSTA        SUNNY     59  36  42 NW8G20    30.00S                  
WATERVILLE     SUNNY     60  38  43 W6        29.96S                  
BANGOR         SUNNY     61  39  44 W10G17    29.96S                  
GREENVILLE       N/A     53  35  50 NW10G20   29.93S                  
MILLINOCKET    SUNNY     57  36  45 W8        29.93F                  
HOULTON        SUNNY     56  36  47 W15G22    29.88S                  
PRESQUE ISLE   SUNNY     54  34  46 W15G22    29.87S                  
FRENCHVILLE    SUNNY     49  32  52 W13       29.84S                  
CARIBOU        SUNNY     55  33  43 W12G23    29.85S                  
$$

NHZ002-005-008-009-011-012-014-201500-
NEW HAMPSHIRE
  
CITY           SKY/WX    TMP DP  RH WIND       PRES   REMARKS
PORTSMOUTH     MOSUNNY   62  38  41 W10       30.03R                  
ROCHESTER      SUNNY     60  37  42 VRB7      30.04R                  
NASHUA         SUNNY     61  37  41 NW14      30.08S                  
MANCHESTER     MOSUNNY   60  36  40 W12       30.06R                  
CONCORD        SUNNY     61  37  41 W8        30.06S                  
LACONIA        SUNNY     58  37  45 W13       30.05S                  
PLYMOUTH       FAIR      58  35  43 NW10G18   30.05S                  
BERLIN         SUNNY     55  36  48 W12G20    30.02S                  
WHITEFIELD     SUNNY     55  38  52 W10       30.07R                  
JAFFREY        SUNNY     58  39  49 VRB3      30.09R                  
KEENE          SUNNY     63  41  44 N10       30.09S                  
LEBANON        SUNNY     58  38  47 VRB6      30.08S                  
MT WASHINGTON  FOG       28  28 100 W58         N/A  VSB 1/16WCI   8  
$$

VTZ005-007-008-201500-
VERMONT
  
CITY           SKY/WX    TMP DP  RH WIND       PRES   REMARKS
ST JOHNSBURY     N/A     55  37  50 MISG      30.06R                  
BURLINGTON     MOSUNNY   57  38  48 W15       30.12R                  
$$

MAZ007-012-024-CTZ003-RIZ002-NYZ038-NYZ072-201500-
SOUTHERN NEW ENGLAND AND NY
  
CITY           SKY/WX    TMP DP  RH WIND       PRES   REMARKS
BOSTON         MOSUNNY   63  39  41 NW17G24   30.06R                  
WORCESTER      SUNNY     56  39  53 W10       30.09R                  
NANTUCKET      SUNNY     65  52  62 NW14      30.05R                  
PROVIDENCE     MOSUNNY   63  44  50 NW16      30.09R                  
HARTFORD       MOSUNNY   62  39  42 VRB6      30.12R                  
ALBANY         MOSUNNY   58  41  53 NW8G16    30.16R                  
NEW YORK CITY  MOSUNNY   63  40  42 NW12      30.17R                  
$$

ANZ081-ANZ082-ANZ150-NHZ014-MEZ023>029-201500-
COASTAL MARINE OBSERVATIONS
  
STATION/POSITION TIME  TEMP    WIND        PRES    WAVE
                       AIR SEA DIR/SP/G            HT/PER
                 (UTC) (F)     (DEG/KT/KT) (MB)    (FT/S)
MOUNT DESERT ROC 1400   57     280/ 16/ 17 1014.7R
MATINICUS ROCK   1300   56     300/ 13/ 15 1014.1S
ISLE OF SHOALS   1300   57     280/ 16/ 17 1016.3R
JEFFREYS LEDGE   1336      57                N/A     3/ 4
GEORGES BANK BUO 1250   60 58              1015.2    4/ 9
$$

.............KEY..............
   WCI - WIND CHILL
   TC  - TEMPERATURE IN CELSIUS
   VSB - VISIBILITY IN MILES
   HX  - HEAT INDEX
   FAIR- INDICATES FEW OR NO CLOUDS BELOW 12,000 FT, WITH NO 
         SIGNIFICANT WEATHER AND/OR OBSTRUCTIONS TO VISIBILITY.